User: anonymous   Login
Location: Unspecified
(42.3650°N, 71.1030°W)
Time: 00:02:17
(UTC+00:00)
Language:

BREEZE-M DEB (TANK) - Orbit

View from above orbital plane
View from above orbital plane
View from above satellite
View from above satellite

Ground track
Ground track

The orbit data is extracted from the following two-line orbital elements,

1 31863U 07032B   24141.69500019  .00001727  00000-0  13413-2 0  9996
2 31863  45.9299 259.2278 4964031 129.3354 286.3902  5.53735375339288
Epoch (UTC): 20 May 2024 16:40:48
Eccentricity: 0.4964031
inclination: 45.9299°
perigee height: 418 km
apogee height: 13817 km
right ascension of ascending node: 259.2278°
argument of perigee: 129.3354°
revolutions per day: 5.53735375
mean anomaly at epoch: 286.3902°
orbit number at epoch: 33928

The dashed part of the orbit path shows where the satellite is in the earth's shadow,  

DLR